Weather Roundup
Issued by NWS Chicago, IL

Home | Current Version | Previous Version | Graphics & Text | Print | Product List | Glossary On
Versions: 1 2 3 4 5 6 7 8 9 10 11 12 13 14 15 16 17 18 19 20 21 22 23 24 25 26 27 28 29 30 31 32 33 34 35 36 37 38 39 40 41 42 43 44 45 46 47 48 49 50
000
NZUS59 KLOT 271608
HRRLOT

CHICAGO AREA WEATHER ROUNDUP
NATIONAL WEATHER SERVICE CHICAGO/ROMEOVILLE IL
1100 AM CDT MON MAR 27 2017

NOTE: "FAIR" INDICATES FEW OR NO CLOUDS BELOW 12,000 FEET WITH NO
SIGNIFICANT WEATHER AND/OR OBSTRUCTIONS TO VISIBILITY.

* THESE STATIONS ARE NOT UNDER NWS QUALITY CONTROL. THEY ALSO MAY NOT
  REPORT WEATHER SUCH AS PRECIPITATION OR FOG.

ILZ005-006-012>014-019>023-271700-
NORTHEAST ILLINOIS

CITY           SKY/WX    TMP DP  RH WIND       PRES   REMARKS
OHARE          CLOUDY    47  44  90 E6        29.95S FOG
MIDWAY         CLOUDY    47  45  93 NE7       29.96R FOG
AURORA         CLOUDY    51  46  83 CALM      29.95R HAZE
LANSING*       CLOUDY    51  48  90 CALM      29.96R
JOLIET*        CLOUDY    51  48  89 CALM      29.95S
WAUKEGAN       CLOUDY    45  42  89 E5        29.95R
DUPAGE AIRPORT FOG       48  48 100 NE5       29.94R VSB 1/2
WHEELING       CLOUDY    47  45  93 E5        29.97R
KANKAKEE*      CLOUDY    53  50  89 CALM      29.96S
MORRIS*        CLOUDY    51  47  86 CALM      29.94S
LEWIS AIRPORT* CLOUDY    50  49  95 CALM      29.95R
NORTHERLY ISL    N/A     41  40  96 NE5         N/A
$$

WIZ051-052-058>065-066-070>072-271700-
SOUTHEAST WISCONSIN

CITY           SKY/WX    TMP DP  RH WIND       PRES   REMARKS
MILWAUKEE      CLOUDY    44  40  85 E6        29.96S FOG
KENOSHA*       CLOUDY    46  41  82 N5        29.95S
RACINE*        CLOUDY    44  39  82 NE8       29.97S
WAUKESHA       CLOUDY    41  39  93 CALM      29.96S FOG
WEST BEND      CLOUDY    43  41  93 CALM      29.95S
$$

INZ001>003-010>013-019-020-271700-
NORTHWEST INDIANA

CITY           SKY/WX    TMP DP  RH WIND       PRES   REMARKS
GARY*          CLOUDY    46  45  93 NE7       29.97R FOG
MICHIGAN CITY* NOT AVBL
RENSSELAER*    NOT AVBL
VALPARAISO     CLOUDY    53  49  86 CALM      29.95S
$$

LMZ740>746-271700-
SOUTHERN LAKE MICHIGAN

STATION/POSITION TIME  SKY/WX   TEMP WIND        PRES    VSBY
                                AIR  DIR/SP/G
                 (UTC)          (F)  (DEG/KT/KT) (MB)    (MI)
HARRISON CRIB    1540            42   50/  8/  8   N/A
BURNHAM HARBOR   1600            41   10/  3/  6   N/A
CALUMET HARBOR   1542            41   40/  5/  8 1014.2R
BURNS HARBOR     1600            42   50/  8/ 11 1015.2
MICHIGAN CITY    1540            40   40/  9/ 10   N/A
$$

ABBREVIATIONS USED IN REMARKS
   TC - TEMPERATURE IN CELSIUS
  WCI - WIND CHILL INDEX
   HX - HEAT INDEX
  VSB - VISIBILITY
$$



USA.gov is the U.S. government's official web portal to all federal, state and local government web resources and services.